Total_Precipitation_Accumulation
0.00 0.00 0.00 0.00 0.01 0.01 0.01 0.04 0.11 0.14 0.13 0.19 0.29 0.49 0.64 0.63 0.80 1.19 1.42 1.39 1.38 1.69 2.19 2.55 2.80 2.98 3.29 3.46 3.57 3.48 3.60 3.93 4.20 4.06 3.70 3.45 3.10 2.84 2.64 2.42 2.26 2.26 2.24 2.39
0.00 0.01 0.00 0.01 0.01 0.01 0.02 0.06 0.13 0.15 0.14 0.22 0.37 0.59 0.75 0.85 1.10 1.26 1.18 1.19 1.37 1.68 2.19 2.57 2.82 2.95 3.19 3.49 3.90 3.94 4.04 4.34 4.42 4.19 3.99 3.79 3.56 3.15 3.01 2.86 2.60 2.28 2.14 2.24
0.01 0.01 0.01 0.01 0.01 0.02 0.04 0.06 0.12 0.12 0.19 0.32 0.41 0.80 0.97 1.09 1.23 1.22 1.18 1.35 1.42 1.52 1.91 2.19 2.27 2.45 2.63 2.80 3.04 3.28 3.68 4.13 4.19 4.18 4.10 4.02 3.92 3.38 3.12 2.90 2.63 2.35 2.16 2.10
0.01 0.01 0.01 0.02 0.02 0.02 0.06 0.05 0.05 0.08 0.17 0.43 0.50 1.02 1.23 1.42 1.49 1.31 1.26 1.24 1.26 1.49 1.81 1.84 1.72 1.87 2.11 2.11 2.39 2.74 3.13 3.42 3.61 3.71 3.67 3.64 3.47 3.20 3.07 2.88 2.48 2.23 2.05 2.00
0.02 0.02 0.02 0.04 0.03 0.03 0.05 0.04 0.06 0.10 0.18 0.39 0.44 0.79 1.27 1.59 1.69 1.33 1.22 1.16 1.24 1.45 1.51 1.52 1.55 1.66 1.81 1.97 2.26 2.52 2.77 3.02 3.16 3.20 3.20 3.18 3.00 2.82 2.74 2.59 2.30 2.08 1.93 1.82
0.02 0.04 0.04 0.03 0.03 0.04 0.04 0.07 0.13 0.19 0.35 0.69 0.59 0.69 1.19 1.49 1.32 1.15 1.12 0.96 1.05 1.28 1.38 1.45 1.52 1.64 1.74 2.02 2.36 2.59 2.78 2.97 3.01 2.78 2.64 2.56 2.53 2.48 2.34 2.16 1.98 1.79 1.68 1.58
0.13 0.10 0.07 0.05 0.06 0.07 0.08 0.17 0.55 0.91 1.22 1.12 0.70 0.80 1.38 1.25 0.89 0.81 0.90 0.89 0.90 0.98 1.14 1.24 1.41 1.61 1.78 1.86 1.91 2.20 2.53 2.73 2.69 2.46 2.27 2.15 2.17 2.16 2.06 1.90 1.78 1.68 1.50 1.39
0.28 0.25 0.13 0.09 0.12 0.13 0.13 0.24 0.69 0.94 0.98 0.96 0.77 1.16 1.59 1.19 0.80 0.66 0.75 0.76 0.68 0.64 0.61 0.70 0.85 0.94 1.03 1.06 1.08 1.19 1.39 1.59 1.66 1.60 1.58 1.58 1.61 1.63 1.62 1.68 1.56 1.52 1.42 1.29
0.16 0.15 0.10 0.12 0.17 0.18 0.24 0.28 0.29 0.49 0.66 0.98 1.00 1.18 1.20 0.93 0.73 0.68 0.77 0.73 0.59 0.53 0.47 0.52 0.60 0.59 0.68 0.71 0.75 0.88 1.03 1.18 1.22 1.21 1.19 1.20 1.20 1.28 1.31 1.32 1.29 1.28 1.27 1.19
0.10 0.10 0.10 0.11 0.15 0.18 0.20 0.28 0.42 0.66 0.88 0.98 1.03 1.33 1.46 1.28 1.03 0.82 0.79 0.73 0.56 0.46 0.41 0.44 0.50 0.50 0.60 0.73 0.86 0.99 1.05 1.07 1.05 1.06 1.04 0.95 1.02 1.06 1.12 1.07 1.01 0.98 0.98 0.99
0.08 0.09 0.12 0.18 0.22 0.22 0.23 0.30 0.45 0.61 0.68 0.85 1.14 1.23 0.95 0.89 0.91 0.96 0.99 0.84 0.58 0.44 0.39 0.40 0.46 0.48 0.54 0.65 0.76 0.86 0.93 1.01 0.97 0.92 0.96 0.94 0.95 0.96 0.97 0.96 0.88 0.88 0.88 0.87
0.09 0.11 0.16 0.24 0.21 0.16 0.22 0.32 0.47 0.70 0.75 0.78 0.89 0.94 0.55 0.53 0.64 0.76 0.77 0.62 0.45 0.37 0.35 0.36 0.38 0.37 0.45 0.55 0.63 0.66 0.72 0.85 0.85 0.83 0.88 0.93 0.92 0.88 0.86 0.82 0.78 0.80 0.82 0.84
0.15 0.15 0.26 0.52 0.48 0.26 0.25 0.24 0.35 0.49 0.59 0.65 0.82 0.91 0.55 0.52 0.64 0.69 0.67 0.53 0.42 0.40 0.39 0.43 0.39 0.35 0.39 0.49 0.57 0.61 0.66 0.75 0.82 0.83 0.88 0.88 0.88 0.86 0.80 0.70 0.70 0.69 0.71 0.76
0.12 0.14 0.23 0.58 0.64 0.42 0.31 0.27 0.30 0.42 0.53 0.49 0.48 0.62 0.60 0.58 0.70 0.69 0.64 0.52 0.40 0.35 0.37 0.40 0.44 0.39 0.37 0.40 0.44 0.50 0.61 0.73 0.74 0.75 0.77 0.75 0.73 0.73 0.74 0.72 0.68 0.64 0.66 0.69
0.12 0.16 0.17 0.25 0.33 0.37 0.36 0.29 0.26 0.29 0.32 0.41 0.42 0.55 0.66 0.64 0.64 0.56 0.51 0.48 0.40 0.32 0.31 0.33 0.32 0.32 0.32 0.34 0.37 0.43 0.45 0.55 0.63 0.70 0.71 0.70 0.70 0.69 0.68 0.66 0.61 0.59 0.58 0.55
0.18 0.22 0.22 0.28 0.34 0.36 0.38 0.35 0.27 0.23 0.24 0.29 0.34 0.46 0.49 0.52 0.49 0.45 0.42 0.38 0.36 0.28 0.23 0.23 0.23 0.21 0.22 0.26 0.29 0.36 0.38 0.42 0.51 0.56 0.58 0.66 0.70 0.67 0.66 0.60 0.56 0.54 0.55 0.59
0.27 0.31 0.31 0.35 0.43 0.48 0.51 0.33 0.29 0.30 0.26 0.37 0.54 0.55 0.47 0.58 0.47 0.38 0.36 0.30 0.24 0.20 0.17 0.17 0.16 0.16 0.19 0.22 0.27 0.32 0.37 0.42 0.46 0.49 0.52 0.54 0.60 0.65 0.62 0.55 0.52 0.51 0.52 0.58
0.31 0.45 0.49 0.46 0.60 0.74 0.57 0.31 0.26 0.30 0.27 0.26 0.35 0.37 0.37 0.54 0.45 0.33 0.26 0.24 0.20 0.18 0.16 0.14 0.15 0.16 0.20 0.23 0.27 0.35 0.40 0.43 0.47 0.53 0.55 0.55 0.55 0.61 0.63 0.59 0.55 0.57 0.58 0.60
0.27 0.42 0.50 0.56 0.67 0.69 0.53 0.41 0.36 0.41 0.43 0.25 0.28 0.31 0.31 0.35 0.37 0.35 0.21 0.20 0.19 0.18 0.17 0.15 0.13 0.16 0.23 0.25 0.28 0.34 0.38 0.42 0.50 0.56 0.58 0.57 0.57 0.60 0.62 0.62 0.65 0.68 0.73 0.67
0.37 0.47 0.58 0.55 0.66 0.82 0.65 0.49 0.40 0.44 0.73 0.44 0.31 0.29 0.32 0.35 0.51 0.49 0.27 0.19 0.16 0.16 0.17 0.19 0.20 0.23 0.28 0.31 0.37 0.45 0.49 0.52 0.56 0.58 0.58 0.58 0.64 0.68 0.70 0.76 0.85 0.90 0.93 0.87
0.73 0.73 0.72 0.67 0.68 0.66 0.62 0.49 0.42 0.74 0.89 0.50 0.39 0.36 0.36 0.37 0.43 0.40 0.29 0.22 0.19 0.18 0.19 0.21 0.27 0.38 0.41 0.38 0.47 0.57 0.64 0.65 0.64 0.70 0.72 0.73 0.78 0.86 0.91 1.02 1.12 1.16 1.12 1.12
0.93 0.94 0.90 0.86 0.94 0.92 0.70 0.66 0.74 0.80 0.70 0.57 0.45 0.41 0.35 0.34 0.32 0.32 0.30 0.29 0.26 0.24 0.26 0.24 0.28 0.42 0.51 0.55 0.65 0.73 0.76 0.79 0.86 0.90 0.90 0.92 1.01 0.94 0.93 1.13 1.22 1.30 1.35 1.30
0.86 0.89 0.92 0.95 0.95 0.82 0.75 0.80 0.78 0.71 0.79 0.73 0.56 0.49 0.40 0.38 0.33 0.29 0.28 0.28 0.29 0.29 0.29 0.30 0.35 0.47 0.60 0.72 0.83 0.99 1.04 1.01 1.04 1.08 1.11 1.13 1.18 1.23 1.24 1.36 1.41 1.43 1.42 1.37
0.88 0.79 0.92 1.04 1.05 0.96 0.94 0.85 0.77 0.72 0.77 0.72 0.56 0.50 0.44 0.40 0.35 0.33 0.32 0.31 0.30 0.32 0.30 0.31 0.39 0.48 0.62 0.81 0.99 1.10 1.14 1.10 1.15 1.24 1.24 1.32 1.43 1.44 1.49 1.59 1.59 1.56 1.52 1.48
0.93 0.92 1.10 1.24 1.23 1.20 1.22 1.04 0.82 0.73 0.66 0.60 0.51 0.47 0.44 0.41 0.38 0.34 0.34 0.34 0.30 0.28 0.28 0.32 0.42 0.54 0.60 0.69 0.87 1.05 1.14 1.21 1.31 1.40 1.44 1.52 1.62 1.68 1.73 1.65 1.62 1.59 1.62 1.55
0.92 0.98 1.11 1.22 1.12 1.09 1.11 0.98 0.75 0.71 0.72 0.66 0.64 0.62 0.52 0.47 0.48 0.41 0.35 0.32 0.28 0.27 0.29 0.37 0.44 0.53 0.61 0.67 0.80 0.97 1.15 1.28 1.45 1.50 1.53 1.59 1.63 1.71 1.73 1.71 1.61 1.49 1.42 1.34